User: anonymous   Login
Location: Caltech
(34.1382°N, 118.1253°W)
Time: 21:56:54
(UTC-08:00)
Language:

Gurwin Techsat 1B - Orbit

View from above orbital plane
View from above orbital plane
View from above satellite
View from above satellite

Ground track
Ground track

The orbit data is extracted from the following two-line orbital elements,

1 25397U 98043D   16044.45537108  .00000041  00000-0  36826-4 0  9992
2 25397  98.5532 352.7293 0001524  31.9842 328.1429 14.23582611914118
Epoch (UTC): 13 February 2016 10:55:44
Eccentricity: 0.0001524
inclination: 98.5532°
perigee height: 812 km
apogee height: 814 km
right ascension of ascending node: 352.7293°
argument of perigee: 31.9842°
revolutions per day: 14.23582611
mean anomaly at epoch: 328.1429°
orbit number at epoch: 91411

The dashed part of the orbit path shows where the satellite is in the earth's shadow,  

DLR